User: anonymous   Login
Location: Unspecified
(0.0000°N, 0.0000°E)
Time: 10:07:20
(UTC+00:00)
Language:

Vela 2A - Orbit

View from above orbital plane
View from above orbital plane
View from above satellite
View from above satellite

Ground track
Ground track

The orbit data is extracted from the following two-line orbital elements,

1 00836U 64040A   15245.08518750  .00000038  00000-0  00000+0 0  9992
2 00836 081.0664 321.2651 3445520 244.1432 000.1826 00.23928203 44663
Epoch (UTC): 02 September 2015 02:02:40
Eccentricity: 0.3445520
inclination: 81.0664°
perigee height: 65455 km
apogee height: 140978 km
right ascension of ascending node: 321.2651°
argument of perigee: 244.1432°
revolutions per day: 0.23928203
mean anomaly at epoch: 0.1826°
orbit number at epoch: 4466

The dashed part of the orbit path shows where the satellite is in the earth's shadow,  

DLR